This demonstration page uses our WeatherBlox Daily Observations layout. Learn more.

Left ArrowRight Arrow

44.8408, -93.29828

Hourly Observations for February 22, 2019

Temp ( °F °C ) Dew Point ( °F °C ) Humidity (%) Winds ( mph kmh ) Pressure ( in mb ) Visibility ( mi km ) Precip ( " mm )
12:53 am 00:53 Cloudy with Mist and Fog 13 -10.6 12 -11.1 96 96 Calm 30.42 1030 6 10 0.00 0.00
1:53 am 01:53 Cloudy with Mist and Fog 13 -10.6 10 -12.2 88 88 Calm 30.42 1030 5 8 0.00 0.00
2:53 am 02:53 Cloudy with Mist and Fog 12 -11.1 11 -11.7 95 95 SW 5 7 30.43 1031 5 8 0.00 0.00
3:53 am 03:53 Cloudy with Mist and Fog 13 -10.6 11 -11.7 92 92 SW 6 9 30.44 1031 5 8 0.00 0.00
4:53 am 04:53 Cloudy with Mist and Fog 12 -11.1 10 -12.2 92 92 Calm 30.44 1031 5 8 0.00 0.00
5:00 am 05:00 Partly Cloudy with Mist and Fog 11 -11.7 9 -12.8 92 92 Calm 30.49 1033 5 8 0.00 0.00
5:53 am 05:53 Cloudy with Mist and Fog 12 -11.1 10 -12.2 92 92 Calm 30.45 1031 5 8 0.00 0.00
6:53 am 06:53 Partly Cloudy with Mist and Fog 10 -12.2 9 -12.8 95 95 Calm 30.44 1031 5 8 0.00 0.00
7:53 am 07:53 Partly Cloudy with Mist and Fog 11 -11.7 10 -12.2 96 96 ESE 3 6 30.44 1031 4 6 0.00 0.00
8:27 am 08:27 Mostly Cloudy with Mist and Fog 11 -11.7 10 -12.2 96 96 SSE 5 7 30.49 1033 3 5 0.00 0.00
8:53 am 08:53 Partly Cloudy with Mist and Fog 12 -11.1 11 -11.7 95 95 ESE 3 6 30.46 1032 4 6 0.00 0.00
9:53 am 09:53 Partly Cloudy with Mist and Fog 15 -9.4 13 -10.6 91 91 Calm 30.47 1032 6 10 0.00 0.00
10:53 am 10:53 Cloudy 19 -7.2 13 -10.6 77 77 Calm 30.48 1032 7 11 0.00 0.00
11:53 am 11:53 Cloudy 21 -6.1 14 -10 74 74 E 5 7 30.45 1031 7 11 0.00 0.00
12:53 pm 12:53 Mostly Cloudy 24 -4.4 15 -9.4 68 68 Calm 30.42 1030 9 14 0.00 0.00
1:53 pm 13:53 Mostly Cloudy 26 -3.3 15 -9.4 63 63 ESE 5 7 30.41 1030 9 14 0.00 0.00
2:53 pm 14:53 Mostly Cloudy 26 -3.3 15 -9.4 63 63 SE 9 15 30.39 1029 10 16 0.00 0.00
3:53 pm 15:53 Cloudy 26 -3.3 15 -9.4 63 63 SE 7 11 30.36 1028 8 13 0.00 0.00
4:53 pm 16:53 Cloudy 26 -3.3 15 -9.4 63 63 E 7 11 30.35 1028 8 13 0.00 0.00
5:53 pm 17:53 Cloudy 26 -3.3 16 -8.9 66 66 ENE 9 15 30.32 1027 7 11 0.00 0.00
6:53 pm 18:53 Cloudy 27 -2.8 16 -8.9 63 63 E 7 11 30.34 1027 9 14 0.00 0.00
7:53 pm 19:53 Cloudy 27 -2.8 16 -8.9 63 63 ENE 8 13 30.32 1027 9 14 0.00 0.00
8:53 pm 20:53 Cloudy 27 -2.8 16 -8.9 63 63 E 9 15 30.29 1026 8 13 0.00 0.00
9:53 pm 21:53 Cloudy 27 -2.8 16 -8.9 63 63 E 7 11 30.26 1025 9 14 0.00 0.00
10:53 pm 22:53 Cloudy 26 -3.3 17 -8.3 69 69 E 9 15 30.23 1024 8 13 0.00 0.00
11:45 pm 23:45 Cloudy 27 -2.8 17 -8.3 66 66 E 10 17 30.19 1022 7 11 0.00 0.00
11:53 pm 23:53 Cloudy 28 -2.2 17 -8.3 63 63 E 9 15 30.17 1022 8 13 0.00 0.00

Powered by AerisWeather